TIMESTAMP,CO2_1_1_1,H2O_1_1_1,TAU_1_1_1,TAU_SSITC_TEST_1_1_1,H_1_1_1,H_SSITC_TEST_1_1_1,LE_1_1_1,LE_SSITC_TEST_1_1_1,FC_1_1_1,FC_SSITC_TEST_1_1_1,WD_0_0_1,WS_0_0_1,WS_MAX_0_0_1,U_SIGMA_0_0_1,V_SIGMA_0_0_1,W_SIGMA_0_0_1,USTAR_0_0_1,MO_LENGTH_0_0_1,ZL_0_0_1,FETCH_MAX_0_0_1,FETCH_70_0_0_1,FETCH_80_0_0_1,FETCH_90_0_0_1,PA_0_0_1,RH_0_0_1,TA_0_0_1,VPD_0_0_1,T_SONIC_0_0_1,T_SONIC_SIGMA_0_0_1
[yyyymmddHHMMSS],[mmolCO2 mol-1],[mmolH2O mol-1],[kg m-1 s-2],[#],[W m-2],[#],[W m-2],[#],[umolCO2 m-2 s-1],[#],[Decimal degrees],[m s-1],[m s-1],[m s-1],[m s-1],[m s-1],[m s-1],[m],[#],[m],[m],[m],[m],[kPa],[%],[deg C],[hPa],[deg C],[deg C]
20220913003000,407.97040804031161,12.205685662329591,5.7051445067179969E-002,0,-28.798769988946727,1,14.244960882640958,0,1.7973180106978615,1,345.62618183427122,2.4720665222717946,4.5704151435032019,0.51420696584071268,0.36538855227427675,0.27772835358262887,0.22506003614556322,32.898345853482951,0.57753663617675377,105.82723068878177,193.48592956319681,231.55324069120357,289.87718023827591,93.405563176215281,69.611034482758626,14.425172413793121,4.9783936304044643,14.498792203267385,0.36404738038114109
20220913010000,410.22238712304227,11.978422449329310,2.9619012440545121E-002,0,-11.219896290656191,1,5.1053106541445885,1,0.18424099267297722,2,340.45509486824773,2.2385342533405459,3.6801547938388892,0.51441449597648514,0.33882983472514072,0.22755239835366550,0.16187947389903001,31.425205696825714,0.60461020313764269,251.18096109595459,2510.0000000000000,4709.0000000000000,-9999.,93.424658343967010,72.531000000000006,13.505666666666684,4.2393259274058144,13.581147026909775,0.32423601808472097
20220913013000,411.91650442131180,11.814389264687787,1.4786363785213726E-002,1,-15.270457330725842,0,2.9665154999952725,2,1.3250674911614690,0,346.87590660707360,1.8836847282497982,3.5986756775534858,0.49442395826145008,0.30832341042961908,0.18600614345098024,0.11424924485529547,8.1178862186799901,2.3405107546690274,382.33513610243995,3275.0000000000000,5880.0000000000000,-9999.,93.442796712890626,74.238666666666660,12.940999999999974,3.8318787402761449,13.068959495544505,0.22371701475182632
20220913020000,412.11606317041208,11.549375326744908,1.8414957776092478E-002,0,-21.484554298013197,0,2.6916060145603766,1,1.5667789960837659,0,333.82754123836941,2.1952741405513754,3.3793989739256407,0.34618315929988558,0.33639774560113167,0.17309485948681305,0.12742331979097957,8.0035216798956998,2.3739549613174291,417.91755588493032,3612.0000000000000,6501.0000000000000,-9999.,93.427228488712288,74.293333333333337,12.581000000000017,3.7346023135460862,12.730593840871052,0.37247355139196148
20220913023000,410.76035290100327,11.481428260699797,1.0908220835866421E-002,1,-4.6832718042116683,1,0.41086408178562761,1,0.44403006531625194,1,341.03165131798971,1.8257683195345977,2.9988319127312799,0.27440623388059587,0.26538138238410564,0.10557391036327028,9.8081418524839190E-002,16.742876287519042,1.1348109890869544,459.44663050179747,4675.0000000000000,8814.0000000000000,-9999.,93.416155296875004,73.681333333333328,12.615333333333353,3.8321349317139313,12.813719907972597,0.20562914748970432
20220913030000,410.79227739863086,11.441730129672441,3.0731547246993906E-003,1,-0.94313681515087167,0,0.12773463847952876,1,0.13284613729219241,0,347.27654117402369,1.2822545932073253,2.2847327578125749,0.36476311228918284,0.15897372871758933,7.3478559765981916E-002,5.2062114273308736E-002,12.432172938966282,1.5282927685511929,783.23567643724982,8206.0000000000000,-9999.,-9999.,93.398162422743056,73.531333333333336,12.590666666666664,3.8477436905474636,12.822142493353965,0.17804893870330624
20220913033000,410.13275744605784,11.259385830560570,1.7708005661418841E-003,0,-2.0591837852651427,1,-1.7926309632034345,2,0.17611612419818504,0,336.95311645558650,1.9387133292081407,2.4286050867243030,0.17546388941188598,0.12263188580474328,5.2451536702260403E-002,3.9525899963988871E-002,2.4913377342665002,7.6264248474500711,3304.4126338649367,-9999.,-9999.,-9999.,93.379831405598964,72.097333333333324,12.643000000000029,4.0701533796894118,12.878667448255783,0.12830889504702667
20220913040000,409.80843630856532,10.820538848166944,7.4506159689564045E-003,1,-2.1932736188640090,1,-2.2739228015219717,2,0.19095912703505635,1,319.43905662512543,2.5143035680936645,3.4556330544973060,0.35465847999443401,0.26624682284371548,0.10867838464627010,8.1045855868734529E-002,20.159999107491124,0.94246035918423787,969.97765539618877,-9999.,-9999.,-9999.,93.362556589843749,70.275999999999996,12.424333333333323,4.2740374381296276,12.634588173760335,0.25621321515645046
20220913043000,409.77800093547796,10.625579440562092,2.5238029307922622E-003,0,-3.3498524550522192E-002,2,-5.9287560855024148,2,-0.22079140726414162,2,318.09111668385799,2.2117048685609677,2.9492189447476158,0.17302020673428012,0.25959932522803114,8.1595070843440795E-002,4.7146885900117404E-002,259.83944665390214,7.3122076900461519E-002,920.25847081457243,7196.0000000000000,-9999.,-9999.,93.361741400173614,70.183999999999997,12.167666666666662,4.2155020894822179,12.413028593275328,0.25917291663897074
20220913050000,410.70011816938302,10.218561918583580,1.4069609695980040E-003,2,-1.5986054882512508,2,10.017898549088548,0,0.48609885715674200,2,322.85914709547728,1.6830251633831916,2.5662787385958623,0.45359661775622617,0.19011881451787996,8.6566927456710421E-002,3.5198947992356122E-002,2.2656524659452151,8.3861052326369592,3103.4586441460324,-9999.,-9999.,-9999.,93.362847981987841,67.499333333333340,12.166999999999973,4.5948690333620723,12.344364709642150,0.37956050710065831
20220913053000,411.36178591520905,10.227081641591509,2.6279517163435881E-003,2,2.9194952100126756,1,-6.5507108505443217,1,-0.30783945389607625,0,302.51307346600333,2.4663286533011468,3.6396535149320739,0.57194409771865473,0.25847601768885531,0.12141200521066033,4.8064543169746482E-002,-3.1589716643762662,-6.0146155200640328,301.87330558578225,841.00000000000000,1125.0000000000000,1758.0000000000000,93.373877605251735,69.628000000000000,11.710666666666668,4.1666120657905132,11.826030552334316,0.37284670950345700
20220913060000,415.07333681819358,10.502970142175991,1.1965713361583670E-002,0,-9.0703967781115029,0,1.6899599701101895,2,0.15552855693674306,2,294.83815524618490,1.9811256156829908,3.2669994187696445,0.38493811590682581,0.23808538894378825,0.14041780509651841,0.10249785522843710,9.8604306472160506,1.9268935282623152,524.66006893760937,4900.0000000000000,9015.0000000000000,-9999.,93.368391298072254,73.426666666666662,11.309333333333313,3.5499375127037229,11.428328236862285,0.42368997149530324
20220913063000,416.80022834110673,10.236854527166500,7.9686302653138256E-003,1,4.9624661209331675,2,-20.216674503188379,1,-4.5739713559232200,1,281.34194119741653,1.9602660985474587,3.0392941112052485,0.40048747175190286,0.21174785675706226,0.10200594208092389,8.3679613861413621E-002,-9.8061471537691443,-1.9375601550805870,213.98344254965806,618.00000000000000,834.00000000000000,1323.0000000000000,93.361372642795132,70.403000000000006,11.555666666666639,4.0188959849544732,11.593688357035319,0.44027825862656117
20220913070000,416.03254337861483,9.9435595664937146,1.4808447149463711E-002,1,-3.2454103807022556,1,-1.8413748704551318,2,-1.6960729078137295,2,285.16308007727423,1.6630049023957343,2.5957401264036970,0.35173446707568962,0.24185068834827206,9.3003144597480936E-002,0.11407089990982758,37.982531902924848,0.50022994908711982,264.64260295932132,2682.0000000000000,5052.0000000000000,-9999.,93.365338117091582,68.236666666666665,11.589333333333343,4.3226721891475925,11.657723791322837,0.18042163812957396
20220913073000,414.80859179956718,9.4491970683985631,1.1738511086306382E-002,0,-14.007682960639146,0,13.580591155705479,1,3.0346375109459927,1,273.72186450291065,2.2772233556756087,3.4189077152184915,0.35062758432343760,0.23637387216753639,0.14773627501341535,0.10160130749388739,6.2173854591746718,3.0559469289398313,703.14354324203600,6170.0000000000000,-9999.,-9999.,93.359662240017371,63.724666666666664,11.851999999999975,5.0231309150480730,11.948577270507769,0.40488652947911752
20220913080000,414.62071128467454,9.7313871786262851,2.3420602473983365E-002,0,-18.444092951245359,0,13.567991578593171,1,2.9155601087647027,0,273.92331377329549,2.7403076235830510,4.3938701641227027,0.53436791866069366,0.38367821751340597,0.24232628693701136,0.14357745746763287,13.324795375754588,1.4259130789033991,497.68644456213974,4914.0000000000000,9186.0000000000000,-9999.,93.347847400390634,64.807999999999993,12.040666666666652,4.9341331919318927,12.163002844916491,0.50290385326107390
20220913083000,414.75339517778644,9.5555041238982916,1.7900861178930597E-002,0,-17.138539533081229,0,17.751758853639529,0,2.0319902673872030,0,276.91379739720350,2.9425887685497347,4.7199937413835107,0.45104768027784797,0.33289596298618362,0.21126545861829543,0.12560773326387251,9.6007756731221949,1.9790067643379439,750.95379281101759,7371.0000000000000,-9999.,-9999.,93.342268662760418,62.036999999999999,12.426666666666677,5.4595666556241609,12.562887308756558,0.49675218601241500
20220913090000,415.64301465428736,8.9585709490784087,2.6923769031862079E-002,1,27.920900269142990,1,-30.804301390486874,1,-2.0646289383526839,1,268.27470222257125,2.3689327909500704,3.4596441220901699,0.34134225728243539,0.34256989341164518,0.15025363563645971,0.15401342806811050,-10.862871060501668,-1.7490771909357952,136.69857377388058,402.00000000000000,545.00000000000000,871.00000000000000,93.345549368489586,58.324333333333335,12.384666666666647,5.9769772831956507,12.484333941141756,0.52494853559806620
20220913093000,415.63641436594872,8.9036894408014913,5.8503149573307361E-003,0,-2.8177676461380869,1,1.6046553965658419,1,0.33346233055046937,1,281.63341352056239,2.4264201143926560,3.2500739909365959,0.27082607926026803,0.23006680560402529,0.13240552436654349,7.1866281268692642E-002,10.936305735793509,1.7373325562593567,1358.6226657686343,-9999.,-9999.,-9999.,93.345802043402770,55.759000000000000,12.976999999999975,6.5961607798325854,13.097805985344849,0.42351473864853256
20220913100000,414.67490916417307,9.2484816244546550,7.3388824321239891E-003,0,-3.8590431838267563,1,-3.7959472150450324,2,0.57773605626001046,1,279.14240522591081,2.5192896626557659,3.4611535079015820,0.32037870818715319,0.20728456944366483,0.11964395064297384,8.0538455830895098E-002,11.239528362619231,1.6904623919265851,1192.1127905214526,-9999.,-9999.,-9999.,93.342823902126739,56.841666666666669,13.263666666666666,6.5564041156665693,13.439800993177698,0.38565664694808466
20220913103000,413.54516212968150,9.9153256976866313,1.1776199686463845E-002,1,-8.5274363143822072,1,-4.1734015990677067,1,1.5170771079928427,2,275.16968637488253,2.3928269642313853,3.5202373092566499,0.27167301259548177,0.26038937380259014,0.13758235025875296,0.10206902756676764,10.354784885146659,1.8349005035589299,743.99146035249089,7421.0000000000000,-9999.,-9999.,93.345726538194441,60.135333333333335,13.468000000000018,6.1372853834291536,13.801191884358786,0.46330497137333709
20220913110000,418.65020729769094,10.332280213456894,2.8993336175088012E-002,1,26.284428818597245,2,-35.528708375715361,2,-9.1978858215162766,2,261.69526150307098,2.4032198740289217,3.4325493792655597,0.31273498893941998,0.34237797141361515,0.16996243553348017,0.16014680910784251,-12.976248322341940,-1.4642136562142254,142.22448877183047,422.00000000000000,573.00000000000000,918.00000000000000,93.341380263747297,63.021666666666668,13.379999999999995,5.6603635074020398,13.510903675489089,0.57730131563024922
20220913113000,431.96797220621664,11.399235898049094,4.9221945287369680E-002,0,0.62060443261033793,2,-15.283777070475203,2,-3.3485388372198472,2,250.82995533072696,2.8755369572999490,4.8605748189669891,0.53669522146915072,0.48393603559406173,0.32208332678669527,0.20832471226318161,-1209.9553833816926,-1.5703058361455514E-002,88.363505710989230,161.55667053438239,193.34207248025609,242.04133194033983,93.341194381510419,74.471333333333334,12.331333333333362,3.6484178960176474,12.541940388149669,0.57608454333966086
20220913120000,441.85002466386612,11.838288077961106,8.1701430049129969E-002,0,-27.497237925844434,0,15.010764998658013,0,9.9598972276640474,0,255.33827733243885,3.2190662016020291,5.4420330147081133,0.66660100347113693,0.54516847038587557,0.34331377800200846,0.26809886764927282,58.213272172431026,0.32638605065389414,102.73960628852835,187.84076741223851,224.79742339103771,281.41969865291264,93.352280820312501,80.712000000000003,11.685666666666691,2.6416751142348791,11.946646649678542,0.63203881135966844
20220913123000,438.97698689831429,11.922304812567045,7.6697585600792553E-002,0,-13.002502131605146,1,7.8970874112202782,0,2.8081023819626161,0,261.17775271207364,3.1647918071531889,5.2292704488806905,0.62246219872676656,0.50329860912067070,0.34898233259906603,0.25986237738753676,112.11221624444975,0.16947305687519684,98.902409632114328,180.82514811320905,216.40151890427023,270.90902252974968,93.356926905664679,80.056666666666672,11.916999999999973,2.7734701266678985,12.113747614296130,0.53361163438198123
20220913130000,431.74367552382711,12.089058275580317,6.9975495296443105E-002,0,-47.504773859284917,0,21.537549977474455,0,10.155913215077405,0,267.60188261576229,2.8901059290189175,5.2229288361868464,0.63867049204255311,0.53815958912285788,0.37383612960744145,0.24862859453462524,26.879212233028312,0.70686595407931674,90.354698780831640,165.19720652451196,197.69886425457540,247.49551824606823,93.366198131727430,76.199333333333328,12.881333333333316,3.5264406200460918,13.058581923590737,0.50026595588650080
20220913133000,426.44712187284864,12.335007531672064,0.10363495122365990,0,-13.416502785092849,0,16.666908508503305,1,-2.0705582731023942,0,259.87020901036726,2.4804308706762601,4.6884196072413298,0.65979198446404519,0.54531752049226545,0.40464118415070083,0.30304582303391997,172.33910017151811,0.11024776142552974,99.358602715348198,181.65921456468206,217.39968342313932,272.15860606086306,93.357909525173611,73.591666666666669,13.722333333333324,4.1335136022265671,13.825744675530416,0.29705664284567640
20220913140000,426.07604015691481,12.832111800988473,0.13840731323517752,0,-2.6484669776857324,2,44.705635990295015,0,0.99635726158040305,0,266.53782382579993,2.8667112931189824,5.3837191287937198,0.74660222391657638,0.64624834509392526,0.47101040064610517,0.35061957452369580,1352.3116303117536,1.4050015968301521E-002,98.877944318178791,180.78041771652323,216.34798804374003,270.84200824456883,93.364639820701854,73.498666666666665,14.351999999999975,4.3210103267658546,14.515282299415389,0.39325485955893524
20220913143000,415.07674095286160,13.593982910707156,0.13424186646125949,1,84.808627820920591,1,94.312589172801324,0,-17.672465893494252,1,277.54547907374865,1.9221581044693858,4.2676708522172708,0.69364201256921743,0.66949463739449422,0.45330181467997721,0.34631357663377932,-40.699874795875076,-0.46683190293070992,100.95330649011485,184.57484166963829,220.88894440621880,276.52674676090788,93.361990825228133,70.279333333333341,15.944999999999993,5.3686391805426386,16.203520998935630,0.63812426739917172
20220913150000,407.24972270689005,13.845584849497376,0.21395297828099319,0,48.005761895107419,0,147.97556332213895,0,-11.485879723124759,0,288.48834674754414,2.3973363040189821,5.7856516038673886,0.93396685282275949,0.65591341311721607,0.52303522280285186,0.43831414940184565,-145.80435259423481,-0.13031161046937959,108.70725840008876,198.75153875719292,237.85483004106354,297.76602233050562,93.377268008463531,65.129666666666665,17.434000000000026,6.9238267381403604,17.547324851989686,0.28277803272758928
20220913153000,404.10981860606501,14.217251153345529,0.19816366926490961,1,76.802769080665982,0,134.70662197174263,0,-12.206115780517811,0,279.74265655961051,2.3581647224798044,5.6848639377423131,0.82061567255815826,0.76521709470873089,0.55587463812598037,0.42253930183959287,-81.659650752800360,-0.23267304996829699,100.54653306807793,183.83113012042583,219.99891162839154,275.41253133819964,93.389008601345481,62.916666666666664,18.406333333333350,7.8278219574955550,18.504434114244248,0.36961927595333183
20220913160000,401.90440994610856,14.156624797432881,0.23282531950738614,1,92.320325977918216,1,140.29497005371528,0,-12.883694282649456,0,290.24984916525779,2.1120218012864136,5.2774291679352601,0.93008457061158112,0.72619850362824800,0.55057500374215862,0.45889175949819300,-87.020368321496335,-0.21833968720753502,108.23554658355194,197.88909911179601,236.82271005568236,296.47393058462131,93.388416989311906,58.363666666666667,19.541333333333341,9.4340706282422282,19.598610710950652,0.35555303274916417
20220913163000,401.20569997735288,14.325606502351478,0.25125017849255227,1,103.88372972672728,0,247.63075232664144,0,-16.285609568376302,0,272.41652746161571,1.9749768073262191,4.7601581124818688,0.87935350838337711,0.76428916474627906,0.56136046340195977,0.47739349725089431,-87.072966585549167,-0.21820779450913166,109.99239065134842,201.10117038440490,240.66673899454520,301.28619866700978,93.386384831380212,56.125000000000000,20.363999999999976,10.461015264509120,20.497342337714372,0.40379839608992030
20220913170000,402.66842656324332,13.926748000581938,0.28088141240657472,1,113.74519557403882,0,198.72129291331052,0,-12.994686502094808,0,292.91817543511661,2.4824794711351972,6.3633358503416959,0.89592029024268427,0.90579884217771556,0.59596955271961194,0.50542239069720907,-94.367082483583317,-0.20134139468924830,109.74865933874112,200.65555181084358,240.13344737456407,300.61858084147912,93.389352502744828,51.862666666666669,21.189000000000021,12.075100257998033,21.233403302510681,0.41609351305375319
20220913173000,403.73085738466210,13.711659154330935,0.25820042564903367,0,78.497937769344901,0,114.69192680653357,1,-8.4683288908691114,1,290.97334981779733,2.8362401185176318,6.2044308730155748,0.99772632120604565,1.1789693001813577,0.65279064164100287,0.48487555128856746,-120.72372462405082,-0.15738414349928681,98.705190970008260,180.46456949921301,215.96999839637999,270.36881005995735,93.383919434895830,49.951000000000001,21.547000000000025,12.833047552971397,21.563218399047855,0.35692847378311143
20220913180000,403.06758956547822,13.953459417729594,0.34559221590378097,0,102.90107291209290,0,142.97790030106711,0,-8.3053288394388183,0,294.96925479760273,2.4086279268261164,7.3353382519556769,1.2018112670134817,1.1835332599737411,0.70451982845997640,0.56142226189418187,-142.97742552658295,-0.13288811104286838,104.41719608628256,190.90793660235715,228.46804154566800,286.01487701111421,93.394615638671880,49.338999999999999,22.036999999999978,13.384545460616588,22.126580846150773,0.38447540705580080
20220913183000,404.30164919263399,13.184167988877702,0.41079211240397917,0,118.41073373505715,0,317.11323871961770,0,-14.688254447206679,0,291.27326777858320,2.9564886634159033,8.2516143750116306,1.2702624763613997,1.1736842800540856,0.76891158354938194,0.61246321496147815,-161.28581125992329,-0.11780329498036364,104.38011830920308,190.84014660050539,228.38691422725947,285.91331523538457,93.388762946180563,45.430333333333330,22.460333333333324,14.793441122184836,22.436843219333241,0.34452019822687169
20220913190000,404.44564054555474,12.993000050625183,0.62008688503690623,0,100.90133540819761,0,198.70636693859458,0,-11.729788942023736,0,287.85206822096211,2.8961226830529556,8.0100679649884992,1.4919648161949890,1.4140792816294376,0.85295353588759926,0.75287068365469179,-351.56003928309110,-5.4044822724292597E-002,113.31591494025133,207.17763276822507,247.93871251783025,310.38984659439268,93.388290487926412,43.892666666666670,22.786999999999978,15.514793734875616,22.688327575375070,0.33642572555740857
20220913193000,405.13120866890830,12.824949866126676,0.46537515941976243,0,91.903810078986652,0,232.80109122626706,0,-12.367602478198277,0,301.57353027961375,2.9065880386154377,7.9769660476720343,1.5770012364839554,1.1501428728470853,0.76514274695990969,0.65245743016150826,-251.22906709009851,-7.5628191514901466E-002,110.23072711469993,201.53692545292773,241.18822651816964,301.93903916462682,93.394629256095826,42.670999999999999,23.039333333333332,16.096653797120300,22.907113935698533,0.29193950671574770
20220913200000,406.17981780972718,12.316325484182881,0.56584484030996962,0,55.807883051050780,0,54.091247388607869,2,-4.5182156489971206,1,293.27103641949168,3.3737933689188035,7.9846662862386060,1.3080961145436913,1.5007205891976785,0.78069283048088411,0.71947898326389448,-554.73224519222515,-3.4250758207531533E-002,117.29654952394444,214.45550234550123,256.64846360800334,321.29342142262675,93.398739888888883,40.743333333333332,23.135333333333335,16.734753294326623,22.992295460171192,0.25812473820885096
20220913203000,405.96844504092275,12.276158652441731,0.54312445932957243,0,72.117663686523557,0,176.53812866893131,0,-8.4942962967894786,0,295.99711058596364,3.4921812431836687,9.1615488399923919,1.4552439271311592,1.2621796556190448,0.82298758205784761,0.70488584274149579,-403.69363786490868,-4.7065393699263908E-002,110.62042036158662,202.24940899452309,242.04088734662366,303.00646934143657,93.403338690972220,40.566666666666670,23.153999999999996,16.803592343943205,23.011867917378765,0.20995500636834560
20220913210000,404.81475066077030,12.668098494767795,0.41611364521231259,0,60.813453861404064,0,206.55524267621428,0,-10.696263431155099,0,308.54843317073971,2.6215596675890285,8.0832777142920769,1.2326036138410434,0.99134888884888261,0.67418086005741085,0.61717913893772103,-321.37949590202953,-5.9120137539179003E-002,116.67095569545282,213.31171730410043,255.27964504022231,319.57982300568506,93.408370668619796,41.467333333333329,23.311666666666667,16.707286111797259,23.238777659098332,0.20589536833170852
20220913213000,404.59577263907977,12.865845197706101,0.43274163108184066,0,-5.0099959321107370,2,361.96763941541633,1,-8.7116321969768062,0,314.48318921523799,3.3060562537977578,9.0671099520991252,1.4391965678031595,1.4409105251146821,0.67970625655274308,0.62912496636771409,4132.4358955775215,4.5977724712762151E-003,117.70297010800763,215.19856879436580,257.53772436547513,322.40667036746112,93.419477820157951,42.725333333333332,23.075333333333333,16.116448583202565,22.988606347392590,0.22731334823825308
20220913220000,403.91084584139594,15.752000392511247,0.36405365569867909,0,49.617639657271972,0,100.89952605675312,0,-8.4415518321535554,0,9.8913974563601812,2.8433222345658593,7.1445512578106820,1.0879029389652271,1.0553072496311986,0.72645295195776849,0.57575881318565447,-320.07237096950649,-5.9361574828994353E-002,103.96361710717358,190.07864956695019,227.47559676715005,284.77245391619135,93.459592299479169,57.366000000000000,21.565333333333342,10.944037882435866,21.724397616112014,0.50733725739777180
20220913223000,405.63906667092948,15.880515030287160,0.26744568669991448,1,23.581635811922272,0,92.629945004882771,0,-7.9142403576316882,0,0.88020885291535933,2.1911466767362580,6.1744163692197898,0.85641648564900785,0.84202483851038590,0.58860841740169134,0.49252828463563958,-421.76930298623051,-4.5048323492191872E-002,108.57720699952722,198.51376331919960,237.57027357047977,297.40979139603388,93.517743333767356,61.442999999999998,20.589666666666687,9.3219314287061685,20.889269485473733,0.22936094914702759
20220913230000,408.60154841923355,15.963500463133602,0.18982365961629941,0,-3.0663219342364560,2,58.006363243159200,0,-5.7057802594618918,0,9.0362047583196556,2.3303307522156542,5.6207142625887991,0.84686286974348712,0.73522467869993169,0.50883702040613177,0.41429518057228576,1931.2553483345209,9.8381604568164686E-003,106.22820527194470,194.21903898550278,232.43058543094475,290.97551174291772,93.570075559678827,64.779333333333341,19.827666666666687,8.1234906806716261,20.195343779669997,0.23770237882861800